Time,TemperatureF,DewpointF,PressureIn,WindDirection,WindDirectionDegrees,WindSpeedMPH,WindSpeedGustMPH,Humidity,HourlyPrecipIn,Conditions,Clouds,dailyrainin,SoftwareType,DateUTC
2013-03-13 00:00:00,34.0,-99.9,29.94,SW,220,13.0,16.0,-999,-99.99,,,-99.99,,2013-03-13 04:00:00,
2013-03-13 00:23:00,34.0,-99.9,29.94,SW,220,13.0,16.0,-999,-99.99,,,-99.99,,2013-03-13 04:23:00,
2013-03-13 00:32:00,34.0,-99.9,29.94,SW,220,13.0,16.0,-999,-99.99,,,-99.99,,2013-03-13 04:32:00,
2013-03-13 00:43:00,34.0,-99.9,29.94,SW,220,13.0,16.0,-999,-99.99,,,-99.99,,2013-03-13 04:43:00,
2013-03-13 00:53:00,34.0,-99.9,29.94,SW,220,13.0,16.0,-999,-99.99,,,-99.99,,2013-03-13 04:53:00,
2013-03-13 01:00:00,34.0,-99.9,29.93,SW,220,13.0,17.0,-999,-99.99,,,-99.99,,2013-03-13 05:00:00,
2013-03-13 01:22:00,34.0,-99.9,29.93,SW,220,13.0,17.0,-999,-99.99,,,-99.99,,2013-03-13 05:22:00,
2013-03-13 01:33:00,34.0,-99.9,29.93,SW,220,13.0,17.0,-999,-99.99,,,-99.99,,2013-03-13 05:33:00,
2013-03-13 01:43:00,34.0,-99.9,29.93,SW,220,13.0,17.0,-999,-99.99,,,-99.99,,2013-03-13 05:43:00,
2013-03-13 01:53:00,34.0,-99.9,29.93,SW,220,13.0,17.0,-999,-99.99,,,-99.99,,2013-03-13 05:53:00,
2013-03-13 02:00:00,33.0,-99.9,29.92,SW,220,11.0,14.0,-999,-99.99,,,-99.99,,2013-03-13 06:00:00,
2013-03-13 02:23:00,33.0,-99.9,29.92,SW,220,11.0,14.0,-999,-99.99,,,-99.99,,2013-03-13 06:23:00,
2013-03-13 02:33:00,33.0,-99.9,29.92,SW,220,11.0,14.0,-999,-99.99,,,-99.99,,2013-03-13 06:33:00,
2013-03-13 02:43:00,33.0,-99.9,29.92,SW,220,11.0,14.0,-999,-99.99,,,-99.99,,2013-03-13 06:43:00,
2013-03-13 02:53:00,33.0,-99.9,29.92,SW,220,11.0,14.0,-999,-99.99,,,-99.99,,2013-03-13 06:53:00,
2013-03-13 03:00:00,33.0,-99.9,29.91,SSW,200,9.0,13.0,-999,-99.99,,,-99.99,,2013-03-13 07:00:00,
2013-03-13 03:23:00,33.0,-99.9,29.91,SSW,200,9.0,13.0,-999,-99.99,,,-99.99,,2013-03-13 07:23:00,
2013-03-13 03:33:00,33.0,-99.9,29.91,SSW,200,9.0,13.0,-999,-99.99,,,-99.99,,2013-03-13 07:33:00,
2013-03-13 03:43:00,33.0,-99.9,29.91,SSW,200,9.0,13.0,-999,-99.99,,,-99.99,,2013-03-13 07:43:00,
2013-03-13 03:53:00,33.0,-99.9,29.91,SSW,200,9.0,13.0,-999,-99.99,,,-99.99,,2013-03-13 07:53:00,
2013-03-13 04:00:00,32.0,-99.9,29.89,SSW,200,8.0,10.0,-999,-99.99,,,-99.99,,2013-03-13 08:00:00,
2013-03-13 04:12:00,32.0,-99.9,29.90,SSW,210,9.0,15.0,-999,-99.99,,,-99.99,,2013-03-13 08:12:00,
2013-03-13 04:23:00,32.0,-99.9,29.89,SSW,200,8.0,10.0,-999,-99.99,,,-99.99,,2013-03-13 08:23:00,
2013-03-13 04:33:00,32.0,-99.9,29.89,SSW,200,8.0,10.0,-999,-99.99,,,-99.99,,2013-03-13 08:33:00,
2013-03-13 04:43:00,32.0,-99.9,29.89,SSW,200,8.0,10.0,-999,-99.99,,,-99.99,,2013-03-13 08:43:00,
2013-03-13 04:54:00,32.0,-99.9,29.89,SSW,200,8.0,10.0,-999,-99.99,,,-99.99,,2013-03-13 08:54:00,
2013-03-13 05:00:00,32.0,-99.9,29.87,SSW,200,11.0,14.0,-999,-99.99,,,-99.99,,2013-03-13 09:00:00,
2013-03-13 05:23:00,32.0,-99.9,29.87,SSW,200,11.0,14.0,-999,-99.99,,,-99.99,,2013-03-13 09:23:00,
2013-03-13 05:32:00,32.0,-99.9,29.87,SSW,200,11.0,14.0,-999,-99.99,,,-99.99,,2013-03-13 09:32:00,
2013-03-13 05:42:00,32.0,-99.9,29.87,SSW,200,11.0,14.0,-999,-99.99,,,-99.99,,2013-03-13 09:42:00,
2013-03-13 05:53:00,32.0,-99.9,29.87,SSW,200,11.0,14.0,-999,-99.99,,,-99.99,,2013-03-13 09:53:00,
2013-03-13 06:00:00,33.0,-99.9,29.88,SW,230,13.0,17.0,-999,-99.99,,,-99.99,,2013-03-13 10:00:00,
2013-03-13 06:22:00,33.0,-99.9,29.88,SW,230,13.0,17.0,-999,-99.99,,,-99.99,,2013-03-13 10:22:00,
2013-03-13 06:32:00,33.0,-99.9,29.88,SW,230,13.0,17.0,-999,-99.99,,,-99.99,,2013-03-13 10:32:00,
2013-03-13 06:42:00,33.0,-99.9,29.88,SW,230,13.0,17.0,-999,-99.99,,,-99.99,,2013-03-13 10:42:00,
2013-03-13 06:52:00,33.0,-99.9,29.88,SW,230,13.0,17.0,-999,-99.99,,,-99.99,,2013-03-13 10:52:00,
2013-03-13 07:00:00,32.0,-99.9,29.87,SW,230,13.0,15.0,-999,-99.99,,,-99.99,,2013-03-13 11:00:00,
2013-03-13 07:23:00,32.0,-99.9,29.87,SW,230,13.0,15.0,-999,-99.99,,,-99.99,,2013-03-13 11:23:00,
2013-03-13 07:32:00,32.0,-99.9,29.87,SW,230,13.0,15.0,-999,-99.99,,,-99.99,,2013-03-13 11:32:00,
2013-03-13 07:42:00,32.0,-99.9,29.87,SW,230,13.0,15.0,-999,-99.99,,,-99.99,,2013-03-13 11:42:00,
2013-03-13 07:53:00,32.0,-99.9,29.87,SW,230,13.0,15.0,-999,-99.99,,,-99.99,,2013-03-13 11:53:00,
2013-03-13 08:00:00,32.0,-99.9,29.87,SW,230,13.0,15.0,-999,-99.99,,,-99.99,,2013-03-13 12:00:00,
2013-03-13 08:22:00,32.0,-99.9,29.87,SW,230,13.0,15.0,-999,-99.99,,,-99.99,,2013-03-13 12:22:00,
2013-03-13 08:33:00,32.0,-99.9,29.87,SW,230,13.0,15.0,-999,-99.99,,,-99.99,,2013-03-13 12:33:00,
2013-03-13 08:42:00,32.0,-99.9,29.87,SW,230,13.0,15.0,-999,-99.99,,,-99.99,,2013-03-13 12:42:00,
2013-03-13 08:53:00,32.0,-99.9,29.87,SW,230,13.0,15.0,-999,-99.99,,,-99.99,,2013-03-13 12:53:00,
2013-03-13 09:20:00,32.0,-99.9,29.88,West,260,21.0,29.0,-999,-99.99,,,-99.99,,2013-03-13 13:20:00,
2013-03-13 09:22:00,30.0,-99.9,29.88,WSW,250,20.0,25.0,-999,-99.99,,,-99.99,,2013-03-13 13:22:00,
2013-03-13 09:33:00,30.0,-99.9,29.88,WSW,250,20.0,25.0,-999,-99.99,,,-99.99,,2013-03-13 13:33:00,
2013-03-13 09:43:00,30.0,-99.9,29.88,WSW,250,20.0,25.0,-999,-99.99,,,-99.99,,2013-03-13 13:43:00,
2013-03-13 09:53:00,30.0,-99.9,29.88,WSW,250,20.0,25.0,-999,-99.99,,,-99.99,,2013-03-13 13:53:00,
2013-03-13 10:03:00,32.0,-99.9,29.88,West,260,21.0,29.0,-999,-99.99,,,-99.99,,2013-03-13 14:03:00,
2013-03-13 10:12:00,32.0,-99.9,29.88,West,260,21.0,29.0,-999,-99.99,,,-99.99,,2013-03-13 14:12:00,
2013-03-13 10:43:00,29.0,-99.9,29.90,WNW,290,28.0,30.0,-999,-99.99,,,-99.99,,2013-03-13 14:43:00,
2013-03-13 10:53:00,29.0,-99.9,29.90,WNW,290,28.0,30.0,-999,-99.99,,,-99.99,,2013-03-13 14:53:00,
2013-03-13 11:03:00,29.0,-99.9,29.90,WNW,290,28.0,30.0,-999,-99.99,,,-99.99,,2013-03-13 15:03:00,
2013-03-13 11:12:00,29.0,-99.9,29.90,WNW,290,28.0,30.0,-999,-99.99,,,-99.99,,2013-03-13 15:12:00,
2013-03-13 11:22:00,29.0,-99.9,29.92,WNW,290,28.0,31.0,-999,-99.99,,,-99.99,,2013-03-13 15:22:00,
2013-03-13 11:33:00,29.0,-99.9,29.92,WNW,290,28.0,31.0,-999,-99.99,,,-99.99,,2013-03-13 15:33:00,
2013-03-13 11:43:00,29.0,-99.9,29.92,WNW,290,28.0,31.0,-999,-99.99,,,-99.99,,2013-03-13 15:43:00,
2013-03-13 11:53:00,29.0,-99.9,29.92,WNW,290,28.0,31.0,-999,-99.99,,,-99.99,,2013-03-13 15:53:00,
2013-03-13 12:00:00,30.0,-99.9,29.93,WNW,290,21.0,25.0,-999,-99.99,,,-99.99,,2013-03-13 16:00:00,
2013-03-13 12:03:00,30.0,-99.9,29.92,West,280,24.0,29.0,-999,-99.99,,,-99.99,,2013-03-13 16:03:00,
2013-03-13 12:13:00,30.0,-99.9,29.92,West,280,24.0,29.0,-999,-99.99,,,-99.99,,2013-03-13 16:13:00,
2013-03-13 12:22:00,30.0,-99.9,29.93,WNW,290,21.0,25.0,-999,-99.99,,,-99.99,,2013-03-13 16:22:00,
2013-03-13 12:33:00,30.0,-99.9,29.93,WNW,290,21.0,25.0,-999,-99.99,,,-99.99,,2013-03-13 16:33:00,
2013-03-13 12:42:00,30.0,-99.9,29.93,WNW,290,21.0,25.0,-999,-99.99,,,-99.99,,2013-03-13 16:42:00,
2013-03-13 12:52:00,30.0,-99.9,29.93,WNW,290,21.0,25.0,-999,-99.99,,,-99.99,,2013-03-13 16:52:00,
2013-03-13 13:23:00,29.0,-99.9,29.94,West,270,22.0,25.0,-999,-99.99,,,-99.99,,2013-03-13 17:23:00,
2013-03-13 13:33:00,29.0,-99.9,29.94,West,270,22.0,25.0,-999,-99.99,,,-99.99,,2013-03-13 17:33:00,
2013-03-13 13:43:00,29.0,-99.9,29.94,West,280,26.0,-999.0,-999,-99.99,,,-99.99,,2013-03-13 17:43:00,
2013-03-13 13:53:00,29.0,-99.9,29.94,West,280,26.0,-999.0,-999,-99.99,,,-99.99,,2013-03-13 17:53:00,
2013-03-13 14:03:00,29.0,-99.9,29.94,West,280,26.0,-999.0,-999,-99.99,,,-99.99,,2013-03-13 18:03:00,
2013-03-13 14:13:00,29.0,-99.9,29.94,West,280,26.0,-999.0,-999,-99.99,,,-99.99,,2013-03-13 18:13:00,
2013-03-13 14:22:00,29.0,-99.9,29.95,WNW,290,30.0,37.0,-999,-99.99,,,-99.99,,2013-03-13 18:22:00,
2013-03-13 14:34:00,29.0,-99.9,29.95,WNW,290,30.0,37.0,-999,-99.99,,,-99.99,,2013-03-13 18:34:00,
2013-03-13 14:43:00,29.0,-99.9,29.95,WNW,290,30.0,37.0,-999,-99.99,,,-99.99,,2013-03-13 18:43:00,
2013-03-13 14:52:00,29.0,-99.9,29.96,WNW,290,29.0,-999.0,-999,-99.99,,,-99.99,,2013-03-13 18:52:00,
2013-03-13 15:03:00,29.0,-99.9,29.96,WNW,290,29.0,-999.0,-999,-99.99,,,-99.99,,2013-03-13 19:03:00,
2013-03-13 15:12:00,29.0,-99.9,29.96,WNW,290,29.0,-999.0,-999,-99.99,,,-99.99,,2013-03-13 19:12:00,
2013-03-13 15:22:00,28.0,-99.9,29.96,West,280,29.0,33.0,-999,-99.99,,,-99.99,,2013-03-13 19:22:00,
2013-03-13 15:32:00,28.0,-99.9,29.96,West,280,29.0,33.0,-999,-99.99,,,-99.99,,2013-03-13 19:32:00,
2013-03-13 15:43:00,28.0,-99.9,29.96,West,280,29.0,33.0,-999,-99.99,,,-99.99,,2013-03-13 19:43:00,
2013-03-13 15:53:00,28.0,-99.9,29.96,West,280,29.0,33.0,-999,-99.99,,,-99.99,,2013-03-13 19:53:00,
2013-03-13 16:02:00,28.0,-99.9,29.96,West,270,23.0,-999.0,-999,-99.99,,,-99.99,,2013-03-13 20:02:00,
2013-03-13 16:13:00,28.0,-99.9,29.96,West,270,23.0,-999.0,-999,-99.99,,,-99.99,,2013-03-13 20:13:00,
2013-03-13 16:23:00,26.0,-99.9,29.98,West,270,33.0,39.0,-999,-99.99,,,-99.99,,2013-03-13 20:23:00,
2013-03-13 16:33:00,26.0,-99.9,29.98,West,270,33.0,39.0,-999,-99.99,,,-99.99,,2013-03-13 20:33:00,
2013-03-13 16:42:00,26.0,-99.9,29.98,West,270,33.0,39.0,-999,-99.99,,,-99.99,,2013-03-13 20:42:00,
2013-03-13 16:53:00,26.0,-99.9,29.99,West,280,24.0,29.0,-999,-99.99,,,-99.99,,2013-03-13 20:53:00,
2013-03-13 17:02:00,26.0,-99.9,29.99,West,280,24.0,29.0,-999,-99.99,,,-99.99,,2013-03-13 21:02:00,
2013-03-13 17:12:00,26.0,-99.9,29.99,West,280,24.0,29.0,-999,-99.99,,,-99.99,,2013-03-13 21:12:00,
2013-03-13 17:22:00,26.0,-99.9,29.99,WNW,290,25.0,30.0,-999,-99.99,,,-99.99,,2013-03-13 21:22:00,
2013-03-13 17:34:00,26.0,-99.9,29.99,WNW,290,25.0,30.0,-999,-99.99,,,-99.99,,2013-03-13 21:34:00,
2013-03-13 17:42:00,26.0,-99.9,29.99,WNW,290,25.0,30.0,-999,-99.99,,,-99.99,,2013-03-13 21:42:00,
2013-03-13 17:52:00,27.0,-99.9,29.99,West,280,28.0,31.0,-999,-99.99,,,-99.99,,2013-03-13 21:52:00,
2013-03-13 18:02:00,27.0,-99.9,29.99,West,280,28.0,31.0,-999,-99.99,,,-99.99,,2013-03-13 22:02:00,
2013-03-13 18:12:00,27.0,-99.9,29.99,West,280,28.0,31.0,-999,-99.99,,,-99.99,,2013-03-13 22:12:00,
2013-03-13 18:22:00,27.0,-99.9,29.99,West,280,28.0,31.0,-999,-99.99,,,-99.99,,2013-03-13 22:22:00,
2013-03-13 18:52:00,28.0,-99.9,30.01,WNW,300,26.0,30.0,-999,-99.99,,,-99.99,,2013-03-13 22:52:00,
2013-03-13 19:02:00,28.0,-99.9,30.01,WNW,300,26.0,30.0,-999,-99.99,,,-99.99,,2013-03-13 23:02:00,
2013-03-13 19:12:00,28.0,-99.9,30.01,WNW,300,26.0,30.0,-999,-99.99,,,-99.99,,2013-03-13 23:12:00,
2013-03-13 19:22:00,28.0,-99.9,30.02,WNW,300,26.0,32.0,-999,-99.99,,,-99.99,,2013-03-13 23:22:00,
2013-03-13 19:32:00,28.0,-99.9,30.02,WNW,300,26.0,32.0,-999,-99.99,,,-99.99,,2013-03-13 23:32:00,
2013-03-13 19:43:00,28.0,-99.9,30.02,WNW,300,26.0,32.0,-999,-99.99,,,-99.99,,2013-03-13 23:43:00,
2013-03-13 19:52:00,28.0,-99.9,30.02,WNW,300,26.0,32.0,-999,-99.99,,,-99.99,,2013-03-13 23:52:00,
2013-03-13 20:02:00,28.0,-99.9,30.02,WNW,300,24.0,30.0,-999,-99.99,,,-99.99,,2013-03-14 00:02:00,
2013-03-13 20:13:00,28.0,-99.9,30.02,WNW,300,24.0,30.0,-999,-99.99,,,-99.99,,2013-03-14 00:13:00,
2013-03-13 20:22:00,28.0,-99.9,30.02,WNW,300,24.0,30.0,-999,-99.99,,,-99.99,,2013-03-14 00:22:00,
2013-03-13 21:12:00,29.0,-99.9,30.04,WNW,290,24.0,29.0,-999,-99.99,,,-99.99,,2013-03-14 01:12:00,
2013-03-13 21:23:00,30.0,-99.9,30.05,WNW,290,25.0,29.0,-999,-99.99,,,-99.99,,2013-03-14 01:23:00,
2013-03-13 21:33:00,30.0,-99.9,30.05,WNW,290,25.0,29.0,-999,-99.99,,,-99.99,,2013-03-14 01:33:00,
2013-03-13 21:42:00,30.0,-99.9,30.05,WNW,290,25.0,29.0,-999,-99.99,,,-99.99,,2013-03-14 01:42:00,
2013-03-13 21:53:00,31.0,-99.9,30.04,West,280,26.0,-999.0,-999,-99.99,,,-99.99,,2013-03-14 01:53:00,
2013-03-13 22:02:00,31.0,-99.9,30.04,West,280,26.0,-999.0,-999,-99.99,,,-99.99,,2013-03-14 02:02:00,
2013-03-13 22:12:00,31.0,-99.9,30.04,West,280,26.0,-999.0,-999,-99.99,,,-99.99,,2013-03-14 02:12:00,
2013-03-13 22:22:00,31.0,-99.9,30.05,WNW,290,28.0,37.0,-999,-99.99,,,-99.99,,2013-03-14 02:22:00,
2013-03-13 22:33:00,31.0,-99.9,30.05,WNW,290,28.0,37.0,-999,-99.99,,,-99.99,,2013-03-14 02:33:00,
2013-03-13 22:42:00,31.0,-99.9,30.05,WNW,290,28.0,37.0,-999,-99.99,,,-99.99,,2013-03-14 02:42:00,
2013-03-13 22:52:00,31.0,-99.9,30.05,WNW,290,28.0,37.0,-999,-99.99,,,-99.99,,2013-03-14 02:52:00,
2013-03-13 23:02:00,31.0,-99.9,30.05,WNW,300,30.0,-999.0,-999,-99.99,,,-99.99,,2013-03-14 03:02:00,
2013-03-13 23:12:00,32.0,-99.9,30.05,NW,310,30.0,32.0,-999,-99.99,,,-99.99,,2013-03-14 03:12:00,
2013-03-13 23:23:00,32.0,-99.9,30.05,NW,310,30.0,32.0,-999,-99.99,,,-99.99,,2013-03-14 03:23:00,
2013-03-13 23:33:00,32.0,-99.9,30.05,NW,310,30.0,32.0,-999,-99.99,,,-99.99,,2013-03-14 03:33:00,
2013-03-13 23:43:00,32.0,-99.9,30.05,NW,310,30.0,32.0,-999,-99.99,,,-99.99,,2013-03-14 03:43:00,